Weather reports worldwide

Advertisment
Orense, Spain (8048): temperature & dewpoint: 19.03.2019 18:00:00 - 25.03.2019 18:00:00 (CET)Orense, Spain (8048): wind speed: 19.03.2019 18:00:00 - 25.03.2019 18:00:00 (CET)Orense, Spain (8048): wind direction: 19.03.2019 18:00:00 - 25.03.2019 18:00:00 (CET)Orense, Spain (8048): reduced air pressure: 19.03.2019 18:00:00 - 25.03.2019 18:00:00 (CET)Orense, Spain (8048): visibility: 19.03.2019 18:00:00 - 25.03.2019 18:00:00 (CET)Orense, Spain (8048): precipitation: 19.03.2019 18:00:00 - 25.03.2019 18:00:00 (CET)
Date & Time tt [°C] td [°C] ff [km/h] ff [kn] dd ppp [hPa] vv [km] rr [mm]
25.03.2019 18:00:00 - - - - - - - -
25.03.2019 17:00:00 23,7 5,1 8 4 NNW 1017,9 20 0,0
25.03.2019 16:00:00 23,1 6,4 8 4 NNE 1018,7 18 -
25.03.2019 15:00:00 22,0 7,4 8 4 NNE 1019,7 20 0,0
25.03.2019 14:00:00 20,6 5,8 5 3 N 1021,1 20 0,0
25.03.2019 13:00:00 18,8 6,3 8 4 NNE 1022,3 20 -
25.03.2019 12:00:00 16,7 6,2 4 2 N 1023,4 20 0,0
25.03.2019 11:00:00 13,8 5,9 8 4 N 1024,4 20 0,0
25.03.2019 10:00:00 9,8 6,3 4 2 S 1025,0 18 -
25.03.2019 09:00:00 5,2 3,7 2 1 S 1025,3 17 0,0
25.03.2019 08:00:00 4,3 3,0 2 1 WSW 1025,1 17 0,0
25.03.2019 07:00:00 4,7 3,0 2 1 S 1024,8 13 -
25.03.2019 06:00:00 5,3 3,5 4 2 SSE 1024,6 15 0,0
25.03.2019 05:00:00 6,2 3,9 2 1 S 1024,5 20 0,0
25.03.2019 04:00:00 7,1 4,2 2 1 S 1024,5 20 -
25.03.2019 03:00:00 8,3 4,7 4 2 WSW 1024,4 20 0,0
25.03.2019 02:00:00 9,9 5,1 2 1 SE 1024,3 20 0,0
25.03.2019 01:00:00 12,0 5,2 2 1 NE 1024,1 20 -
25.03.2019 00:00:00 13,2 5,4 4 2 N 1023,9 20 0,0
24.03.2019 23:00:00 14,2 6,0 4 2 W 1023,7 20 0,0
24.03.2019 22:00:00 15,3 6,6 5 3 NNE 1023,2 20 -
24.03.2019 21:00:00 17,4 7,2 5 3 NNE 1022,1 20 0,0
24.03.2019 20:00:00 20,1 8,1 5 3 WNW 1020,7 20 0,0
24.03.2019 19:00:00 23,1 5,5 5 3 N 1019,6 20 -
24.03.2019 18:00:00 24,8 3,4 8 4 N 1019,1 20 0,0
24.03.2019 17:00:00 25,5 3,4 8 4 NNE 1019,1 20 0,0
24.03.2019 16:00:00 26,0 1,3 5 3 NNE 1019,5 20 -
24.03.2019 15:00:00 25,3 6,0 5 3 WSW 1020,3 20 0,0
24.03.2019 14:00:00 23,0 3,0 4 2 NNE 1021,7 20 0,0
24.03.2019 13:00:00 19,8 6,2 4 2 S 1022,9 20 -
24.03.2019 12:00:00 16,3 6,4 4 2 SSW 1024,3 20 0,0
24.03.2019 11:00:00 12,9 6,0 2 1 S 1025,3 20 0,0
24.03.2019 10:00:00 8,8 4,8 2 1 E 1025,7 20 -
24.03.2019 09:00:00 4,5 2,5 2 1 SSW 1025,9 20 0,0
24.03.2019 08:00:00 3,8 1,8 4 2 W 1025,6 20 0,0
24.03.2019 07:00:00 4,2 2,1 2 1 W 1025,1 20 -
24.03.2019 06:00:00 5,1 2,3 2 1 W 1024,9 20 0,0
24.03.2019 05:00:00 5,9 3,1 2 1 ESE 1024,3 20 0,0
24.03.2019 04:00:00 6,5 3,1 2 1 W 1024,1 20 -
24.03.2019 03:00:00 7,4 3,6 2 1 E 1023,9 20 0,0
24.03.2019 02:00:00 8,0 3,8 2 1 SE 1023,7 20 0,0
24.03.2019 01:00:00 9,1 4,1 2 1 WSW 1023,7 20 -
24.03.2019 00:00:00 10,5 4,4 2 1 SE 1023,6 20 0,0
23.03.2019 23:00:00 12,3 4,8 2 1 N 1023,3 19 0,0
23.03.2019 22:00:00 14,4 4,9 2 1 ESE 1022,7 20 -
23.03.2019 21:00:00 16,3 5,0 4 2 ESE 1021,8 20 0,0
23.03.2019 20:00:00 21,1 4,6 2 1 E 1020,7 20 0,0
23.03.2019 19:00:00 24,5 2,0 5 3 W 1020,2 20 -
23.03.2019 18:00:00 24,9 2,9 5 3 S 1019,8 20 0,0
23.03.2019 17:00:00 25,1 3,1 9 5 SSW 1019,9 20 0,0
23.03.2019 16:00:00 25,1 1,9 11 6 S 1020,4 20 -
23.03.2019 15:00:00 24,6 2,7 5 3 SSW 1020,9 20 0,0
23.03.2019 14:00:00 21,9 5,3 5 3 W 1022,2 20 0,0
23.03.2019 13:00:00 18,6 5,8 4 2 WNW 1023,7 20 -
23.03.2019 12:00:00 14,5 5,6 4 2 SW 1025,1 20 0,0
23.03.2019 11:00:00 10,9 4,6 4 2 SSW 1026,3 20 0,0
23.03.2019 10:00:00 7,0 3,4 2 1 SW 1027,3 20 -
23.03.2019 09:00:00 3,0 1,5 2 1 SW 1027,7 20 0,0
23.03.2019 08:00:00 2,3 0,5 2 1 SW 1027,6 20 0,0
23.03.2019 07:00:00 2,5 0,7 2 1 SW 1027,4 20 -
23.03.2019 06:00:00 3,4 1,4 0 0 N 1027,0 20 0,0
23.03.2019 05:00:00 4,1 1,8 4 2 SSW 1026,9 20 0,0
23.03.2019 04:00:00 4,9 2,1 0 0 N 1027,2 20 -
23.03.2019 03:00:00 5,9 2,0 2 1 WSW 1027,4 20 0,0
23.03.2019 02:00:00 6,9 2,2 4 2 SW 1027,2 20 0,0
23.03.2019 01:00:00 8,0 2,7 2 1 SSE 1026,9 20 -
23.03.2019 00:00:00 9,4 3,1 2 1 WSW 1026,7 20 0,0
22.03.2019 23:00:00 10,9 3,4 2 1 SW 1026,6 20 0,0
22.03.2019 22:00:00 13,4 3,7 4 2 ESE 1025,7 20 -
22.03.2019 21:00:00 14,8 3,9 2 1 E 1024,7 20 0,0
22.03.2019 20:00:00 18,8 4,2 4 2 WSW 1023,6 20 0,0
22.03.2019 19:00:00 22,5 0,9 4 2 WSW 1022,9 20 -
22.03.2019 18:00:00 23,0 0,7 5 3 W 1022,6 20 0,0
22.03.2019 17:00:00 22,5 -0,9 5 3 N 1023,1 20 0,0
22.03.2019 16:00:00 22,6 0,4 5 3 SSW 1023,6 20 -
22.03.2019 15:00:00 21,8 -0,9 8 4 WSW 1024,2 20 0,0
22.03.2019 14:00:00 20,6 2,4 4 2 S 1025,0 18 0,0
22.03.2019 13:00:00 18,7 3,7 4 2 NNW 1025,9 19 -
22.03.2019 12:00:00 14,8 4,8 5 3 W 1026,8 20 0,0
22.03.2019 11:00:00 10,8 4,5 4 2 NNE 1027,7 20 0,0
22.03.2019 10:00:00 6,7 3,5 4 2 S 1028,2 20 -
22.03.2019 09:00:00 2,5 1,2 2 1 WSW 1028,4 20 0,0
22.03.2019 08:00:00 1,7 0,2 2 1 W 1028,0 20 0,0
22.03.2019 07:00:00 2,2 0,3 2 1 WSW 1027,4 20 -
22.03.2019 06:00:00 2,7 0,8 2 1 SW 1027,0 20 0,0
22.03.2019 05:00:00 3,7 1,2 2 1 WSW 1026,7 20 0,0
22.03.2019 04:00:00 4,4 1,6 2 1 WSW 1026,7 20 -
22.03.2019 03:00:00 5,5 2,1 2 1 ESE 1026,8 20 0,0
22.03.2019 02:00:00 6,9 2,4 4 2 W 1026,5 20 0,0
22.03.2019 01:00:00 7,8 3,1 2 1 W 1026,3 20 -
22.03.2019 00:00:00 9,2 3,4 2 1 WSW 1025,9 20 0,0
21.03.2019 23:00:00 11,3 3,6 2 1 SSW 1025,3 20 0,0
21.03.2019 22:00:00 13,5 3,8 4 2 ESE 1024,6 20 -
21.03.2019 21:00:00 15,1 3,6 4 2 ENE 1023,6 20 0,0
21.03.2019 20:00:00 17,9 2,6 2 1 WSW 1022,5 20 0,0
21.03.2019 19:00:00 21,6 0,1 4 2 SSW 1022,0 20 -
21.03.2019 18:00:00 21,8 -2,9 5 3 S 1022,1 20 0,0
21.03.2019 17:00:00 21,9 0,4 8 4 SSE 1022,6 19 0,0
21.03.2019 16:00:00 20,9 -0,4 5 3 SSW 1023,4 20 -
21.03.2019 15:00:00 20,5 -0,2 2 1 NW 1024,4 20 0,0
21.03.2019 14:00:00 19,1 0,1 5 3 SSW 1025,6 20 0,0
21.03.2019 13:00:00 17,2 0,3 4 2 N 1026,7 20 -
21.03.2019 12:00:00 15,5 -0,3 5 3 W 1027,5 20 0,0
21.03.2019 11:00:00 13,2 2,4 4 2 W 1028,2 20 0,0
21.03.2019 10:00:00 9,2 5,7 4 2 SW 1028,6 20 -
21.03.2019 09:00:00 6,2 4,5 2 1 SSW 1028,9 18 0,0
21.03.2019 08:00:00 5,5 4,0 2 1 SE 1028,8 20 0,0
21.03.2019 07:00:00 5,8 4,1 2 1 SW 1028,8 20 -
21.03.2019 06:00:00 5,6 4,1 2 1 SE 1028,3 20 0,0
21.03.2019 05:00:00 5,5 3,5 2 1 WSW 1028,3 20 0,0
21.03.2019 04:00:00 5,6 3,6 2 1 S 1028,2 20 -
21.03.2019 03:00:00 5,9 3,7 2 1 SSE 1028,4 20 0,0
21.03.2019 02:00:00 7,0 4,5 0 0 N 1028,2 20 0,0
21.03.2019 01:00:00 8,3 5,0 2 1 E 1028,0 20 -
21.03.2019 00:00:00 9,9 5,7 2 1 ESE 1027,6 20 0,0
20.03.2019 23:00:00 11,7 6,0 2 1 N 1027,2 20 0,0
20.03.2019 22:00:00 13,1 6,0 5 3 N 1026,9 20 -
20.03.2019 21:00:00 14,7 6,5 4 2 NW 1026,3 20 0,0
20.03.2019 20:00:00 16,8 6,6 9 5 N 1025,5 20 0,0
20.03.2019 19:00:00 20,2 3,8 5 3 NE 1024,8 20 -
20.03.2019 18:00:00 21,1 4,2 5 3 NNE 1024,7 20 0,0
20.03.2019 17:00:00 20,8 3,9 5 3 NNE 1024,9 20 0,0
20.03.2019 16:00:00 20,2 4,6 4 2 E 1025,6 20 -
20.03.2019 15:00:00 19,1 5,5 5 3 N 1026,5 20 0,0
20.03.2019 14:00:00 17,6 5,2 8 4 W 1027,5 20 0,0
20.03.2019 13:00:00 15,8 5,4 5 3 W 1028,5 20 -
20.03.2019 12:00:00 13,9 5,5 5 3 N 1029,7 20 0,0
20.03.2019 11:00:00 11,8 5,0 5 3 NNE 1030,3 20 0,0
20.03.2019 10:00:00 7,0 4,3 2 1 SSW 1031,0 20 -
20.03.2019 09:00:00 2,7 1,7 2 1 SSW 1031,3 20 0,0
20.03.2019 08:00:00 2,1 1,1 2 1 S 1031,2 19 0,0
20.03.2019 07:00:00 2,5 1,0 4 2 SE 1030,6 20 -
20.03.2019 06:00:00 3,1 1,5 2 1 S 1030,2 20 0,0
20.03.2019 05:00:00 4,0 2,0 2 1 SW 1029,9 20 0,0
20.03.2019 04:00:00 4,9 2,9 2 1 S 1029,9 20 -
20.03.2019 03:00:00 5,9 3,2 4 2 SSE 1030,4 20 0,0
20.03.2019 02:00:00 7,2 3,8 0 0 N 1030,3 20 0,0
20.03.2019 01:00:00 9,1 4,7 2 1 NNE 1030,0 20 -
20.03.2019 00:00:00 10,0 4,8 4 2 WNW 1029,9 20 0,0
19.03.2019 23:00:00 10,6 4,7 2 1 NW 1029,7 20 0,0
19.03.2019 22:00:00 11,5 4,7 4 2 NNW 1029,1 20 -
19.03.2019 21:00:00 12,4 5,1 5 3 N 1028,1 20 0,0
19.03.2019 20:00:00 13,7 5,3 8 4 N 1027,6 20 0,0
19.03.2019 19:00:00 16,2 5,5 8 4 N 1026,4 20 -
19.03.2019 18:00:00 17,6 5,2 9 5 N 1025,8 20 0,0

tt = temperature
td = dewpoint
ff = wind speed
dd = wind direction
ppp = reduced air pressure
vv = visibility
rr = precipitation

Next stations